GW1690 Weather Reports


Display with metric or nautical units.
time (UTC)temp
F
wind
direction
speed
MPH
gust
MPH
rain 1hr
in
rain 24hr
in
rain mn
in
humidity
%
barometer
mb
20260831130039 0 138 1.0 1.0 0.00 0.00 0.00
20260831125524 75 114 1.0 2.0 0.00 0.00 0.00 65 1033.6
20260831125025 75 126 1.0 2.0 0.00 0.00 0.00 66 1039.6
20260831124525 75 134 1.0 2.0 0.00 0.00 0.00 67 1042.4
20260831124053 74 120 1.0 1.0 0.00 0.00 0.00 67 1042.1
20260831123525 74 121 1.0 1.0 0.00 0.00 0.00 67 1043.3
20260831123131 74 136 1.0 1.0 0.00 0.00 0.00 68 1047.0
20260831122555 74 207 0.0 1.0 0.00 0.00 0.00 67 1044.3
20260831122056 74 200 1.0 1.0 0.00 0.00 0.00 67 1044.0
20260831121546 74 210 0.0 1.0 0.00 0.00 0.00 67 1044.3
20260831121040 73 173 1.0 1.0 0.00 0.00 0.00 67 1043.2
20260831120543 73 201 1.0 1.0 0.00 0.00 0.00 67 1043.5
20260831120115 73 184 1.0 1.0 0.00 0.00 0.00 68 1045.2
20260831115606 73 163 1.0 1.0 0.00 0.00 0.00 68 1045.7
20260831115041 73 172 1.0 1.0 0.00 0.00 0.00 68 1045.0
20260831114541 73 132 1.0 1.0 0.00 0.00 0.00 68 1046.6
20260831114045 73 217 1.0 2.0 0.00 0.00 0.00 67 1044.4
20260831113526 73 144 1.0 1.0 0.00 0.00 0.00 67 1044.9
20260831113026 73 129 1.0 1.0 0.00 0.00 0.00 67 1045.0
20260831112542 73 201 1.0 1.0 0.00 0.00 0.00 67 1043.6
20260831112102 73 157 1.0 1.0 0.00 0.00 0.00 67 1044.0
20260831111542 73 219 1.0 1.0 0.00 0.00 0.00 67 1042.9
20260831111026 73 188 0.0 1.0 0.00 0.00 0.00 67 1041.8
20260831110528 73 173 1.0 2.0 0.00 0.00 0.00 67 1043.9
20260831110047 73 185 1.0 1.0 0.00 0.00 0.00 68 1044.8
20260831105542 73 215 1.0 1.0 0.00 0.00 0.00 67 1044.9
20260831105028 73 196 1.0 1.0 0.00 0.00 0.00 68 1045.8
20260831104528 73 139 1.0 1.0 0.00 0.00 0.00 68 1048.0
20260831104047 73 157 1.0 1.0 0.00 0.00 0.00 68 1049.9
20260831103532 73 130 1.0 2.0 0.00 0.00 0.00 69 1050.7
20260831103027 73 142 1.0 1.0 0.00 0.00 0.00 69 1053.3
20260831102529 73 198 1.0 1.0 0.00 0.00 0.00 69 1053.8
20260831102042 73 195 1.0 1.0 0.00 0.00 0.00 69 1054.5
20260831101548 73 206 1.0 1.0 0.00 0.00 0.00 69 1054.1
20260831101108 73 208 1.0 1.0 0.00 0.00 0.00 69 1053.6
20260831100527 73 211 1.0 1.0 0.00 0.00 0.00 69 1052.9
20260831100029 73 232 1.0 1.0 0.00 0.00 0.00 69 1051.6
20260831095528 73 210 1.0 1.0 0.00 0.00 0.00 68 1051.4
20260831095044 74 213 1.0 1.0 0.00 0.00 0.00 68 1049.1
20260831094549 74 190 0.0 1.0 0.00 0.00 0.00 68 1048.3
20260831094028 74 186 1.0 1.0 0.00 0.00 0.00 68 1047.3
20260831093617 74 157 1.0 1.0 0.00 0.00 0.00 68 1047.0
20260831093028 74 180 1.0 1.0 0.00 0.00 0.00 67 1045.7
20260831092624 74 150 0.0 1.0 0.00 0.00 0.00 67 1046.7
20260831092049 74 206 1.0 2.0 0.00 0.00 0.00 67 1045.5
20260831091529 74 205 0.0 1.0 0.00 0.00 0.00 67 1044.8
20260831091030 0 218 0.0 1.0 0.00 0.00 0.00
20260831090529 74 96 0.0 0.0 0.00 0.00 0.00 67 1042.9
20260831090049 75 0.0 0.0 0.00 0.00 0.00 66 1041.1
20260831085549 75 0.0 0.0 0.00 0.00 0.00 65 1038.6
20260831085049 75 0.0 0.0 0.00 0.00 0.00 65 1038.9
20260831084530 75 107 0.0 0.0 0.00 0.00 0.00 64 1034.6
20260831084050 75 126 0.0 1.0 0.00 0.00 0.00 64 1033.2
20260831083530 76 159 0.0 1.0 0.00 0.00 0.00 63 1031.2
20260831083029 76 148 0.0 0.0 0.00 0.00 0.00 63 1029.8
20260831082530 76 142 0.0 1.0 0.00 0.00 0.00 62 1027.5
20260831082030 76 140 0.0 1.0 0.00 0.00 0.00 62 1025.9
20260831081530 77 132 0.0 1.0 0.00 0.00 0.00 61 1024.3
20260831081029 77 129 1.0 1.0 0.00 0.00 0.00 60 1022.9
20260831080558 77 148 1.0 1.0 0.00 0.00 0.00 60 1021.4
20260831080030 77 141 1.0 2.0 0.00 0.00 0.00 59 1020.0
20260831075530 77 133 0.0 1.0 0.00 0.00 0.00 59 1019.3
20260831075031 77 136 1.0 1.0 0.00 0.00 0.00 58 1018.2
20260831074546 78 126 0.0 2.0 0.00 0.00 0.00 58 1017.6
20260831074031 78 129 1.0 3.0 0.00 0.00 0.00 57 1017.6
20260831073626 78 147 0.0 1.0 0.00 0.00 0.00 57 1017.5
20260831073123 78 111 0.0 1.0 0.00 0.00 0.00 57 1016.9
20260831072551 78 134 1.0 2.0 0.00 0.00 0.00 57 1016.7
20260831072051 78 168 0.0 2.0 0.00 0.00 0.00 56 1016.2
20260831071530 78 152 1.0 1.0 0.00 0.00 0.00 56 1016.1
20260831071030 78 153 1.0 2.0 0.00 0.00 0.00 55 1015.7
20260831070547 78 142 1.0 2.0 0.00 0.00 0.00 56 1016.1
20260831070032 78 146 1.0 2.0 0.00 0.00 0.00 56 1016.5
20260831065531 78 131 1.0 2.0 0.00 0.00 0.00 57 1016.9
20260831065031 78 135 2.0 3.0 0.00 0.00 0.00 57 1017.4
20260831064531 78 135 1.0 2.0 0.00 0.00 0.00 58 1019.3
20260831064108 77 153 1.0 3.0 0.00 0.00 0.00 59 1019.8
20260831063531 77 130 2.0 3.0 0.00 0.00 0.00 59 1020.9
20260831063048 77 137 1.0 2.0 0.00 0.00 0.00 61 1023.6
20260831062548 77 128 1.0 3.0 0.00 0.00 0.00 61 1025.4
20260831062052 77 147 1.0 2.0 0.00 0.00 0.00 62 1028.2
20260831061533 77 138 1.0 2.0 0.00 0.00 0.00 64 1032.6
20260831061032 77 125 0.0 2.0 0.00 0.00 0.00 64 1033.3
20260831060532 77 131 1.0 1.0 0.00 0.00 0.00 64 1036.2
20260831060032 77 137 0.0 1.0 0.00 0.00 0.00 65 1037.4
20260831055534 77 150 1.0 2.0 0.00 0.00 0.00 65 1038.0
20260831055032 77 144 1.0 1.0 0.00 0.00 0.00 65 1039.3
20260831054532 77 150 0.0 1.0 0.00 0.00 0.00 65 1041.1
20260831054043 77 155 0.0 1.0 0.00 0.00 0.00 65 1040.0
20260831053525 77 149 0.0 1.0 0.00 0.00 0.00 65 1038.7
20260831053104 77 164 0.0 1.0 0.00 0.00 0.00 65 1037.9
20260831052524 77 162 0.0 1.0 0.00 0.00 0.00 64 1036.6
20260831052048 78 146 0.0 1.0 0.00 0.00 0.00 64 1035.2
20260831051524 78 0.0 0.0 0.00 0.00 0.00 64 1035.3
20260831051024 78 0.0 0.0 0.00 0.00 0.00 64 1034.9
20260831050526 78 168 0.0 1.0 0.00 0.00 0.00 64 1036.1
20260831050025 78 164 0.0 1.0 0.00 0.00 0.00 64 1035.0
20260831045533 78 166 0.0 1.0 0.00 0.00 0.00 64 1034.4
20260831045025 78 159 0.0 1.0 0.00 0.00 0.00 63 1034.2
20260831044543 78 158 0.0 1.0 0.00 0.00 0.00 63 1033.7
20260831044037 78 142 0.0 2.0 0.00 0.00 0.00 63 1033.4
20260831043525 79 170 0.0 2.0 0.00 0.00 0.00 63 1032.6
20260831043023 79 182 1.0 2.0 0.00 0.00 0.00 63 1032.5
20260831042543 79 170 1.0 2.0 0.00 0.00 0.00 63 1032.5
20260831042022 79 188 0.0 1.0 0.00 0.00 0.00 62 1031.1
20260831041522 79 172 0.0 2.0 0.00 0.00 0.00 62 1030.5
20260831041023 79 207 0.0 1.0 0.00 0.00 0.00 62 1030.0
20260831040522 79 220 1.0 2.0 0.00 0.00 0.00 62 1028.5
20260831040044 79 210 1.0 1.0 0.00 0.00 0.00 61 1028.2
20260831035545 79 219 1.0 2.0 0.00 0.00 0.00 61 1027.1
20260831035200 79 190 1.0 2.0 0.00 0.00 0.00 61 1027.2
20260831034521 79 204 1.0 1.0 0.00 0.00 0.00 61 1026.2
20260831034027 79 191 1.0 2.0 0.00 0.00 0.00 61 1026.0
20260831033524 80 206 1.0 4.0 0.00 0.00 0.00 61 1025.7
20260831033036 80 221 1.0 2.0 0.00 0.00 0.00 60 1024.9
20260831032526 80 229 1.0 2.0 0.00 0.00 0.00 60 1024.0
20260831032029 80 229 1.0 2.0 0.00 0.00 0.00 60 1023.7
20260831031524 80 224 1.0 2.0 0.00 0.00 0.00 59 1023.3
20260831031029 80 228 1.0 2.0 0.00 0.00 0.00 60 1023.3
20260831030521 80 224 1.0 2.0 0.00 0.00 0.00 59 1022.9
20260831030023 81 196 1.0 2.0 0.00 0.00 0.00 59 1022.9
20260831025521 81 222 1.0 2.0 0.00 0.00 0.00 59 1022.9
20260831025022 81 217 1.0 2.0 0.00 0.00 0.00 59 1022.2
20260831024526 81 204 1.0 2.0 0.00 0.00 0.00 59 1021.4
20260831024027 81 226 1.0 2.0 0.00 0.00 0.00 58 1020.2
20260831023545 81 228 1.0 2.0 0.00 0.00 0.00 58 1020.0
20260831023044 82 224 1.0 2.0 0.00 0.00 0.00 58 1019.7
20260831022527 82 221 1.0 2.0 0.00 0.00 0.00 57 1019.0
20260831022030 82 220 1.0 2.0 0.00 0.00 0.00 57 1018.7
20260831021522 82 211 1.0 2.0 0.00 0.00 0.00 57 1018.2
20260831021022 83 227 1.0 3.0 0.00 0.00 0.00 56 1017.3
20260831020524 83 226 1.0 2.0 0.00 0.00 0.00 56 1017.1
20260831020022 83 229 1.0 2.0 0.00 0.00 0.00 55 1016.3
20260831015523 83 223 1.0 2.0 0.00 0.00 0.00 55 1016.3
20260831015023 83 233 1.0 2.0 0.00 0.00 0.00 55 1015.8
20260831014522 84 235 1.0 2.0 0.00 0.00 0.00 55 1015.6
20260831014044 84 212 1.0 2.0 0.00 0.00 0.00 54 1015.4
20260831013523 84 224 1.0 2.0 0.00 0.00 0.00 54 1015.1
20260831013022 84 225 1.0 2.0 0.00 0.00 0.00 53 1014.7
20260831012527 85 249 1.0 3.0 0.00 0.00 0.00 52 1014.3
20260831012022 85 223 1.0 2.0 0.00 0.00 0.00 52 1014.1
20260831011523 85 234 1.0 2.0 0.00 0.00 0.00 52 1013.8
20260831011026 85 230 1.0 2.0 0.00 0.00 0.00 51 1013.6
20260831010526 86 232 1.0 2.0 0.00 0.00 0.00 50 1013.4
20260831010021 86 204 1.0 2.0 0.00 0.00 0.00 50 1013.1
20260831005529 86 237 1.0 3.0 0.00 0.00 0.00 49 1013.0
20260831005028 87 232 1.0 2.0 0.00 0.00 0.00 48 1012.9
20260831004522 87 236 1.0 2.0 0.00 0.00 0.00 48 1012.8
20260831004047 87 223 1.0 2.0 0.00 0.00 0.00 47 1012.7
20260831003523 87 225 1.0 2.0 0.00 0.00 0.00 47 1012.6
20260831003023 88 247 1.0 3.0 0.00 0.00 0.00 46 1012.4
20260831002523 88 223 1.0 3.0 0.00 0.00 0.00 46 1012.4
20260831002024 88 217 1.0 3.0 0.00 0.00 0.00 46 1012.3
20260831001520 88 219 1.0 2.0 0.00 0.00 0.00 45 1012.2
20260831001028 89 180 2.0 4.0 0.00 0.00 0.00 44 1012.1
20260831000521 89 220 1.0 2.0 0.00 0.00 0.00 44 1012.0
20260831000029 89 186 1.0 3.0 0.00 0.00 0.00 43 1011.9
20260830235525 90 209 1.0 2.0 0.00 0.00 0.00 43 1011.7
20260830235029 90 145 1.0 3.0 0.00 0.00 0.00 42 1011.7
20260830234533 90 196 1.0 5.0 0.00 0.00 0.00 41 1011.4
20260830234044 91 220 1.0 3.0 0.00 0.00 0.00 40 1011.3
20260830233527 91 231 1.0 2.0 0.00 0.00 0.00 40 1011.2
20260830233023 91 202 1.0 3.0 0.00 0.00 0.00 39 1011.0
20260830232542 92 223 1.0 3.0 0.00 0.00 0.00 38 1010.8
20260830232021 92 212 1.0 4.0 0.00 0.00 0.00 37 1010.6
20260830231522 92 184 1.0 5.0 0.00 0.00 0.00 36 1010.4
20260830231024 92 211 1.0 3.0 0.00 0.00 0.00 37 1010.4
20260830230522 93 202 1.0 2.0 0.00 0.00 0.00 36 1010.4
20260830230028 93 217 1.0 4.0 0.00 0.00 0.00 36 1010.3
20260830225533 93 239 1.0 4.0 0.00 0.00 0.00 35 1010.2
20260830225026 93 248 1.0 4.0 0.00 0.00 0.00 36 1010.2
20260830224523 93 197 1.0 3.0 0.00 0.00 0.00 36 1010.3
20260830224023 93 174 1.0 3.0 0.00 0.00 0.00 36 1010.2
20260830223522 94 142 1.0 3.0 0.00 0.00 0.00 37 1010.5
20260830223023 94 236 1.0 2.0 0.00 0.00 0.00 36 1010.3
20260830222534 94 240 1.0 4.0 0.00 0.00 0.00 36 1010.3
20260830222042 94 182 1.0 2.0 0.00 0.00 0.00 35 1010.1
20260830221546 95 229 1.0 3.0 0.00 0.00 0.00 36 1010.2
20260830221028 95 250 1.0 3.0 0.00 0.00 0.00 34 1009.9
20260830220523 95 219 0.0 2.0 0.00 0.00 0.00 33 1009.7
20260830220026 95 180 1.0 2.0 0.00 0.00 0.00 32 1009.4
20260830215526 95 197 1.0 2.0 0.00 0.00 0.00 31 1009.3
20260830215024 96 162 1.0 4.0 0.00 0.00 0.00 32 1009.3
20260830214545 96 155 1.0 5.0 0.00 0.00 0.00 31 1009.2
20260830214023 96 163 1.0 5.0 0.00 0.00 0.00 30 1009.0
20260830213524 96 180 1.0 3.0 0.00 0.00 0.00 30 1009.2
20260830213031 96 154 1.0 3.0 0.00 0.00 0.00 31 1009.2
20260830212523 96 135 1.0 3.0 0.00 0.00 0.00 31 1009.1
20260830212020 96 144 1.0 4.0 0.00 0.00 0.00 30 1009.0
20260830211520 96 178 1.0 2.0 0.00 0.00 0.00 30 1008.9
20260830211028 95 161 1.0 3.0 0.00 0.00 0.00 31 1009.2
20260830210521 95 155 1.0 2.0 0.00 0.00 0.00 30 1009.2
20260830210021 95 170 2.0 5.0 0.00 0.00 0.00 30 1009.2
20260830205521 95 138 2.0 5.0 0.00 0.00 0.00 30 1009.3
20260830205044 95 193 1.0 3.0 0.00 0.00 0.00 30 1009.2
20260830204545 95 139 1.0 3.0 0.00 0.00 0.00 31 1009.5
20260830204025 95 161 1.0 4.0 0.00 0.00 0.00 30 1009.3
20260830203522 96 139 2.0 5.0 0.00 0.00 0.00 30 1009.2
20260830203048 96 156 1.0 3.0 0.00 0.00 0.00 30 1009.3
20260830202523 96 163 2.0 6.0 0.00 0.00 0.00 30 1009.3
20260830202021 96 144 2.0 5.0 0.00 0.00 0.00 30 1009.3
20260830201522 95 200 1.0 5.0 0.00 0.00 0.00 30 1009.4
20260830201024 95 158 2.0 5.0 0.00 0.00 0.00 30 1009.7
20260830200521 96 173 1.0 4.0 0.00 0.00 0.00 30 1009.6
20260830200105 95 137 1.0 4.0 0.00 0.00 0.00 30 1009.5
20260830195522 95 152 1.0 4.0 0.00 0.00 0.00 31 1009.9
20260830195025 95 159 1.0 3.0 0.00 0.00 0.00 30 1009.5
20260830194522 95 82 1.0 3.0 0.00 0.00 0.00 30 1009.6
20260830194024 95 291 1.0 2.0 0.00 0.00 0.00 30 1009.6
20260830193522 95 146 2.0 5.0 0.00 0.00 0.00 32 1010.2
20260830193025 95 142 2.0 4.0 0.00 0.00 0.00 32 1010.3
20260830192525 95 180 1.0 3.0 0.00 0.00 0.00 31 1010.0
20260830192023 95 148 1.0 4.0 0.00 0.00 0.00 31 1009.8
20260830191546 94 135 1.0 4.0 0.00 0.00 0.00 33 1010.5
20260830191024 94 141 2.0 4.0 0.00 0.00 0.00 33 1010.6
20260830190543 94 143 2.0 6.0 0.00 0.00 0.00 32 1010.3
20260830190046 94 296 1.0 4.0 0.00 0.00 0.00 33 1010.6
20260830185524 94 258 1.0 3.0 0.00 0.00 0.00 33 1010.3
20260830185104 94 206 1.0 2.0 0.00 0.00 0.00 33 1010.8
20260830184608 94 186 1.0 3.0 0.00 0.00 0.00 34 1010.7
20260830184104 94 134 2.0 4.0 0.00 0.00 0.00 34 1010.7
20260830183530 94 169 1.0 6.0 0.00 0.00 0.00 34 1010.5
20260830183041 95 152 2.0 4.0 0.00 0.00 0.00 34 1010.5
20260830182530 95 195 1.0 3.0 0.00 0.00 0.00 33 1010.5
20260830182021 95 166 1.0 5.0 0.00 0.00 0.00 34 1010.7
20260830181521 95 182 1.0 3.0 0.00 0.00 0.00 33 1010.5
20260830181103 95 157 2.0 5.0 0.00 0.00 0.00 31 1010.1
20260830180531 95 142 2.0 3.0 0.00 0.00 0.00 33 1010.3
20260830180031 95 145 1.0 5.0 0.00 0.00 0.00 32 1010.2
20260830175525 94 160 2.0 5.0 0.00 0.00 0.00 33 1010.7
20260830175025 94 172 1.0 3.0 0.00 0.00 0.00 33 1010.4
20260830174542 94 118 2.0 5.0 0.00 0.00 0.00 33 1010.7
20260830174042 93 156 2.0 4.0 0.00 0.00 0.00 33 1010.6
20260830173522 93 158 1.0 3.0 0.00 0.00 0.00 33 1010.7
20260830173021 92 168 2.0 3.0 0.00 0.00 0.00 33 1010.8
20260830172521 92 149 2.0 5.0 0.00 0.00 0.00 34 1010.8
20260830172022 92 161 2.0 4.0 0.00 0.00 0.00 35 1011.1
20260830171521 92 112 1.0 3.0 0.00 0.00 0.00 36 1011.3
20260830171024 92 116 2.0 3.0 0.00 0.00 0.00 36 1011.4
20260830170525 91 118 1.0 3.0 0.00 0.00 0.00 37 1011.7
20260830170022 92 111 2.0 5.0 0.00 0.00 0.00 37 1011.6
20260830165523 92 133 2.0 5.0 0.00 0.00 0.00 37 1011.5
20260830165022 91 142 2.0 4.0 0.00 0.00 0.00 38 1012.1
20260830164523 91 129 2.0 5.0 0.00 0.00 0.00 37 1011.7
20260830164023 90 134 2.0 5.0 0.00 0.00 0.00 38 1011.9
20260830163523 90 123 2.0 5.0 0.00 0.00 0.00 37 1011.6
20260830163023 90 119 2.0 6.0 0.00 0.00 0.00 38 1011.8
20260830162524 90 157 2.0 3.0 0.00 0.00 0.00 38 1011.8
20260830162023 90 148 2.0 6.0 0.00 0.00 0.00 38 1011.7
20260830161524 90 143 2.0 6.0 0.00 0.00 0.00 37 1011.5
20260830161023 89 198 2.0 4.0 0.00 0.00 0.00 39 1011.7
20260830160526 89 143 2.0 4.0 0.00 0.00 0.00 40 1011.7
20260830160029 88 175 2.0 4.0 0.00 0.00 0.00 40 1011.8
20260830155523 88 147 2.0 4.0 0.00 0.00 0.00 41 1011.9
20260830155023 87 155 3.0 6.0 0.00 0.00 0.00 43 1011.9
20260830154523 87 139 2.0 6.0 0.00 0.00 0.00 44 1012.0
20260830154020 86 140 2.0 5.0 0.00 0.00 0.00 45 1012.3
20260830153522 86 153 2.0 8.0 0.00 0.00 0.00 45 1012.2
20260830153020 86 147 2.0 5.0 0.00 0.00 0.00 47 1012.5
20260830152521 85 134 2.0 5.0 0.00 0.00 0.00 48 1012.5
20260830152050 85 134 2.0 6.0 0.00 0.00 0.00 48 1012.4
20260830151525 85 156 2.0 4.0 0.00 0.00 0.00 49 1012.6
20260830151025 84 124 2.0 5.0 0.00 0.00 0.00 49 1012.7
20260830150524 84 148 2.0 4.0 0.00 0.00 0.00 51 1012.9
20260830150020 83 161 2.0 3.0 0.00 0.00 0.00 51 1012.9
20260830145522 83 147 2.0 4.0 0.00 0.00 0.00 53 1013.1
20260830145022 82 139 2.0 6.0 0.00 0.00 0.00 53 1013.3
20260830144521 82 144 2.0 3.0 0.00 0.00 0.00 55 1013.7
20260830144033 81 163 2.0 5.0 0.00 0.00 0.00 56 1014.0
20260830143525 81 170 2.0 5.0 0.00 0.00 0.00 57 1014.7
20260830143034 80 141 2.0 3.0 0.00 0.00 0.00 58 1015.8
20260830142534 79 100 2.0 3.0 0.00 0.00 0.00 60 1018.8
20260830142036 79 160 1.0 3.0 0.00 0.00 0.00 62 1022.0
20260830141553 78 129 2.0 3.0 0.00 0.00 0.00 62 1024.5
20260830141048 78 161 2.0 3.0 0.00 0.00 0.00 63 1028.3
20260830140533 77 155 1.0 3.0 0.00 0.00 0.00 64 1030.0
20260830140036 77 176 1.0 2.0 0.00 0.00 0.00 65 1036.0
20260830135534 76 129 1.0 3.0 0.00 0.00 0.00 66 1041.0
20260830135034 76 141 2.0 3.0 0.00 0.00 0.00 67 1046.0
20260830134637 75 120 2.0 3.0 0.00 0.00 0.00 67 1046.0
20260830134036 75 113 2.0 3.0 0.00 0.00 0.00 68 953.4
20260830133549 75 132 2.0 3.0 0.00 0.00 0.00 69 857.9
20260830133049 74 117 1.0 3.0 0.00 0.00 0.00 70 857.7
20260830132534 74 124 1.0 2.0 0.00 0.00 0.00 70 857.7
20260830132034 73 112 1.0 2.0 0.00 0.00 0.00 71 857.7
20260830131536 73 130 1.0 2.0 0.00 0.00 0.00 72 857.6
20260830131036 73 116 1.0 2.0 0.00 0.00 0.00 73 857.6
20260830130535 72 123 1.0 2.0 0.00 0.00 0.00 74 857.6